DELTA 1 DEB, 39095

Orbit data source: Space-Track

DELTA 1 DEB, 39095 is space debris in SSO originally from a launch on Tue, 06 Nov 1973 UTC launched from the Air Force Western Test Range (AFWTR). Debris objects in space refer to the collection of defunct objects orbiting the Earth. Examples of debris include non-operational satellites, rocket bodies, and fragments generated from explosions, collisions, or faulty payload assembly.

Loading next visibility...
Identifier
39095, 1973-086HH
Orbit
SSO
Country
Flag of USUS
Related business
Manufacturer
Unknown
Mission
Spacecraft
Bus & Motor
Unknown
Mass
Unknown
Launch date (UTC)
1973-11-06 (52 years ago)
Launch vehicle
Unknown
Launch site
Air Force Western Test Range (AFWTR)
Object type
Payload
Rocket body
Debris
Shape & HBR
Unknown shape, 0.1 m
Radar Cross Section
Small (<0.1 m²)

Expand to show TLE details & history
Last TLE update: 2 days ago

TLE from 2 days ago
0 DELTA 1 DEB
1 39095U 73086HH  25290.73503131  .00000049  00000-0  79608-3 0  9997
2 39095 102.4980 301.5254 0058580 315.6920  43.9456 12.30969246547610
Epoch: 2025-10-17T17:38Z
TLE epoch observation values (Epoch: 2025-10-17T17:38:26.705Z)
Latitude
-0.00001°
Longitude
10.43799°
Altitude
1,514.344 km
Speed
7.123 km/s
True Right ascension
20h 06m 06s
True Declination
0° 00' 00"
Sunlit
Object was in daylight at epoch
Visualization orbit readout
Latitude
Unknown
Longitude
Unknown
Altitude
Unknown
Speed
Unknown
Apparent Right ascension
Unknown
Apparent Declination
Unknown
Sunlit
N/A
Visualization observer readout
Local Sidereal Time
20:04:09
Azimuth
Unknown
Elevation
Unknown
Doppler factor
Unknown
Orbital elements
Apogee altitude
1,589.136 km
Perigee altitude
1,496.335 km
Semi-major axis
7,920.873 km
Eccentricity
0.00586
Inclination
102.498°
RAAN
301.5254°
Arg. of periapsis
315.692°
True anomaly
44.41391°
Mean anomaly
43.9456°
Eccentric anomaly
44.17951°
Mean motion
3.07882 °/min
Orbital period
116.93 mins
BSTAR
0.00079608
Loading maneuver chart data...
Computing Atmospheric mass density...
Loading historical data...
Loading historical data...
Loading historical data...
Loading historical data...
Loading historical data...
Loading historical data...
Loading historical data...

Documentation

Showing up to 5 results
|